PDA1204 UKWW-LBBG

Flight info

Callsign PDA1204
Flight time 1h 14m
Altitude 35000
Route NIROV N743 IRMAM DCT GOSLO T228 RUTAR
Aircraft B738/M-SDE2E3FGHIRWXY/LB1

Departure

Time 2026-04-22 10:07
Airport Vinnytsia/Gavyryshivka International Airport (UKWW)

Arrival

Time 2026-04-22 11:21
Airport Burgas Airport (LBBG)
Time Latitude Longitude Altitude Speed Heading
2026-04-22 09:47 49.24291 28.60613 975 ft 0 kts 317°
2026-04-22 09:59 49.24299 28.60607 977 ft 3 kts 336°
2026-04-22 10:00 49.24328 28.60623 971 ft 6 kts 70°
2026-04-22 10:00 49.24327 28.60641 972 ft 0 kts 96°
2026-04-22 10:02 49.24319 28.60663 979 ft 8 kts 128°
2026-04-22 10:02 49.24306 28.60683 973 ft 10 kts 139°
2026-04-22 10:02 49.24328 28.60765 971 ft 10 kts 33°
2026-04-22 10:03 49.24378 28.60859 967 ft 12 kts 51°
2026-04-22 10:03 49.24435 28.60954 968 ft 13 kts 45°
2026-04-22 10:03 49.24459 28.61088 969 ft 14 kts 118°
2026-04-22 10:03 49.24391 28.61195 977 ft 14 kts 138°
2026-04-22 10:04 49.24306 28.61311 973 ft 22 kts 138°
2026-04-22 10:04 49.24217 28.61431 976 ft 29 kts 138°
2026-04-22 10:04 49.24051 28.61659 969 ft 33 kts 139°
2026-04-22 10:04 49.23835 28.61952 969 ft 30 kts 138°
2026-04-22 10:05 49.23732 28.62091 968 ft 29 kts 139°
2026-04-22 10:05 49.23543 28.62349 970 ft 26 kts 139°
2026-04-22 10:05 49.23454 28.62440 968 ft 21 kts 170°
2026-04-22 10:05 49.23432 28.62489 968 ft 8 kts
2026-04-22 10:06 49.23456 28.62467 966 ft 0 kts 317°
2026-04-22 10:06 49.23467 28.62450 970 ft 17 kts 318°
2026-04-22 10:06 49.23751 28.62064 970 ft 91 kts 318°
2026-04-22 10:06 49.24388 28.61198 982 ft 150 kts 317°
2026-04-22 10:07 49.25231 28.60120 1565 ft 161 kts 323°
2026-04-22 10:07 49.26129 28.59067 2367 ft 168 kts 325°
2026-04-22 10:07 49.27184 28.58003 2669 ft 195 kts 342°
2026-04-22 10:07 49.28597 28.58063 2970 ft 218 kts 22°
2026-04-22 10:08 49.29822 28.59527 3612 ft 236 kts 51°
2026-04-22 10:08 49.30389 28.61986 4096 ft 258 kts 87°
2026-04-22 10:08 49.29991 28.64703 5007 ft 268 kts 116°
2026-04-22 10:08 49.28699 28.66763 5905 ft 275 kts 152°
2026-04-22 10:09 49.26828 28.67399 6716 ft 281 kts 185°
2026-04-22 10:09 49.24896 28.66948 7615 ft 282 kts 188°
2026-04-22 10:09 49.22926 28.66646 8440 ft 287 kts 184°
2026-04-22 10:09 49.20949 28.66621 9321 ft 288 kts 175°
2026-04-22 10:10 49.18983 28.67409 10131 ft 292 kts 154°
2026-04-22 10:10 49.17152 28.68817 10583 ft 309 kts 151°
2026-04-22 10:10 49.15182 28.70430 10780 ft 333 kts 151°
2026-04-22 10:10 49.13078 28.72146 11106 ft 351 kts 151°
2026-04-22 10:11 49.10891 28.73896 11699 ft 358 kts 151°
2026-04-22 10:11 49.08660 28.75648 12474 ft 361 kts 151°
2026-04-22 10:11 49.06414 28.77392 13230 ft 365 kts 152°
2026-04-22 10:11 49.04135 28.79152 13950 ft 369 kts 152°
2026-04-22 10:12 49.01824 28.80932 14616 ft 373 kts 152°
2026-04-22 10:12 48.99505 28.82714 15313 ft 375 kts 152°
2026-04-22 10:12 48.97105 28.84331 15958 ft 381 kts 163°
2026-04-22 10:12 48.94465 28.84746 16594 ft 386 kts 182°
2026-04-22 10:13 48.91775 28.84397 17293 ft 389 kts 184°
2026-04-22 10:13 48.89067 28.83977 17906 ft 393 kts 185°
2026-04-22 10:13 48.86333 28.83540 18509 ft 397 kts 185°
2026-04-22 10:13 48.83573 28.83105 19076 ft 400 kts 185°
2026-04-22 10:14 48.80830 28.82687 19637 ft 403 kts 185°
2026-04-22 10:14 48.78029 28.82272 20176 ft 406 kts 184°
2026-04-22 10:14 48.75208 28.81862 20713 ft 409 kts 184°
2026-04-22 10:14 48.72363 28.81454 21238 ft 412 kts 184°
2026-04-22 10:15 48.69491 28.81046 21768 ft 415 kts 184°
2026-04-22 10:15 48.66595 28.80636 22286 ft 418 kts 185°
2026-04-22 10:15 48.63717 28.80229 22773 ft 421 kts 185°
2026-04-22 10:15 48.60745 28.79810 23275 ft 425 kts 185°
2026-04-22 10:16 48.57827 28.79398 23718 ft 428 kts 185°
2026-04-22 10:16 48.54848 28.78977 24125 ft 431 kts 185°
2026-04-22 10:16 48.51859 28.78556 24543 ft 433 kts 185°
2026-04-22 10:16 48.48852 28.78133 24940 ft 435 kts 185°
2026-04-22 10:17 48.45825 28.77708 25335 ft 437 kts 185°
2026-04-22 10:17 48.42786 28.77281 25709 ft 440 kts 185°
2026-04-22 10:17 48.39725 28.76852 26085 ft 442 kts 185°
2026-04-22 10:17 48.36656 28.76422 26478 ft 444 kts 185°
2026-04-22 10:18 48.33570 28.75990 26849 ft 446 kts 185°
2026-04-22 10:18 48.30472 28.75557 27176 ft 449 kts 185°
2026-04-22 10:18 48.27355 28.75123 27547 ft 451 kts 185°
2026-04-22 10:18 48.24264 28.74692 27901 ft 452 kts 185°
2026-04-22 10:19 48.21118 28.74253 28183 ft 455 kts 185°
2026-04-22 10:19 48.17958 28.73813 28530 ft 457 kts 185°
2026-04-22 10:19 48.14783 28.73373 28828 ft 459 kts 185°
2026-04-22 10:19 48.11588 28.72974 29108 ft 462 kts 182°
2026-04-22 10:20 48.08362 28.72853 29402 ft 463 kts 180°
2026-04-22 10:20 48.05134 28.72866 29741 ft 464 kts 179°
2026-04-22 10:20 48.01911 28.72928 30265 ft 460 kts 179°
2026-04-22 10:20 47.98721 28.72993 30612 ft 459 kts 179°
2026-04-22 10:21 47.95557 28.73043 30861 ft 460 kts 180°
2026-04-22 10:21 47.92343 28.73077 31121 ft 461 kts 180°
2026-04-22 10:21 47.89125 28.73096 31400 ft 462 kts 180°
2026-04-22 10:21 47.85913 28.73107 31667 ft 462 kts 181°
2026-04-22 10:22 47.82698 28.73112 31999 ft 461 kts 181°
2026-04-22 10:22 47.79490 28.73116 32315 ft 461 kts 181°
2026-04-22 10:22 47.76275 28.73120 32616 ft 460 kts 181°
2026-04-22 10:22 47.73063 28.73123 32887 ft 461 kts 181°
2026-04-22 10:23 47.69857 28.73127 33141 ft 461 kts 181°
2026-04-22 10:23 47.66652 28.73132 33424 ft 461 kts 181°
2026-04-22 10:23 47.63478 28.73137 33720 ft 461 kts 181°
2026-04-22 10:23 47.60230 28.73143 33994 ft 460 kts 181°
2026-04-22 10:24 47.57066 28.73148 34216 ft 460 kts 181°
2026-04-22 10:24 47.53866 28.73153 34446 ft 460 kts 182°
2026-04-22 10:24 47.50663 28.73159 34667 ft 459 kts 182°
2026-04-22 10:24 47.47464 28.73164 34863 ft 460 kts 182°
2026-04-22 10:25 47.44264 28.73169 35039 ft 460 kts 182°
2026-04-22 10:25 47.41044 28.73174 35029 ft 463 kts 182°
2026-04-22 10:25 47.34595 28.73184 35034 ft 463 kts 182°
2026-04-22 10:26 47.28189 28.73196 35038 ft 457 kts 182°
2026-04-22 10:26 47.21843 28.73207 35052 ft 455 kts 182°
2026-04-22 10:27 47.15550 28.73217 35039 ft 454 kts 182°
2026-04-22 10:27 47.09237 28.73226 35046 ft 454 kts 182°
2026-04-22 10:28 47.02916 28.73236 35046 ft 454 kts 182°
2026-04-22 10:28 46.96584 28.73246 35049 ft 455 kts 182°
2026-04-22 10:29 46.90242 28.73256 35044 ft 456 kts 183°
2026-04-22 10:29 46.83876 28.73266 35048 ft 457 kts 183°
2026-04-22 10:30 46.77504 28.73277 35044 ft 458 kts 183°
2026-04-22 10:30 46.71163 28.73287 35043 ft 459 kts 183°
2026-04-22 10:31 46.64763 28.73297 35041 ft 460 kts 183°
2026-04-22 10:31 46.58350 28.73307 35031 ft 460 kts 183°
2026-04-22 10:32 46.51952 28.73319 35041 ft 459 kts 184°
2026-04-22 10:32 46.45558 28.73330 35037 ft 459 kts 184°
2026-04-22 10:33 46.39178 28.73341 35040 ft 458 kts 184°
2026-04-22 10:33 46.32808 28.73352 35034 ft 457 kts 184°
2026-04-22 10:34 46.26497 28.73363 35040 ft 456 kts 184°
2026-04-22 10:34 46.20141 28.73371 35035 ft 455 kts 184°
2026-04-22 10:35 46.13812 28.73379 35037 ft 454 kts 184°
2026-04-22 10:35 46.07535 28.73386 35038 ft 453 kts 184°
2026-04-22 10:36 46.01228 28.73394 35039 ft 453 kts 185°
2026-04-22 10:36 45.94915 28.73401 35043 ft 453 kts 185°
2026-04-22 10:37 45.85443 28.73413 35046 ft 454 kts 185°
2026-04-22 10:38 45.79122 28.73391 35041 ft 454 kts 186°
2026-04-22 10:38 45.72798 28.73257 35050 ft 455 kts 186°
2026-04-22 10:39 45.66467 28.73116 35046 ft 455 kts 186°
2026-04-22 10:39 45.60168 28.72993 35050 ft 455 kts 186°
2026-04-22 10:40 45.53814 28.72873 35048 ft 455 kts 186°
2026-04-22 10:40 45.47476 28.72756 35053 ft 455 kts 186°
2026-04-22 10:41 45.41145 28.72642 35055 ft 455 kts 187°
2026-04-22 10:41 45.34817 28.72528 35059 ft 455 kts 187°
2026-04-22 10:42 45.28489 28.72414 35057 ft 454 kts 187°
2026-04-22 10:42 45.22175 28.72277 35063 ft 452 kts 189°
2026-04-22 10:43 45.15966 28.71386 35070 ft 447 kts 194°
2026-04-22 10:43 45.09847 28.70243 35074 ft 446 kts 194°
2026-04-22 10:44 45.03691 28.69125 35067 ft 446 kts 194°
2026-04-22 10:44 44.97534 28.68060 35071 ft 446 kts 194°
2026-04-22 10:45 44.91366 28.67017 35062 ft 445 kts 194°
2026-04-22 10:45 44.85214 28.65983 35066 ft 445 kts 194°
2026-04-22 10:46 44.79054 28.64948 35066 ft 445 kts 194°
2026-04-22 10:46 44.72947 28.63923 35064 ft 445 kts 194°
2026-04-22 10:47 44.66794 28.62892 35061 ft 445 kts 194°
2026-04-22 10:47 44.60623 28.61860 34945 ft 448 kts 194°
2026-04-22 10:47 44.57509 28.61336 34517 ft 450 kts 194°
2026-04-22 10:48 44.54413 28.60824 34066 ft 446 kts 194°
2026-04-22 10:48 44.51338 28.60316 33563 ft 442 kts 195°
2026-04-22 10:48 44.48295 28.59814 33092 ft 438 kts 195°
2026-04-22 10:48 44.45280 28.59317 32676 ft 432 kts 195°
2026-04-22 10:49 44.42346 28.58832 32236 ft 428 kts 195°
2026-04-22 10:49 44.39400 28.58345 31816 ft 424 kts 196°
2026-04-22 10:49 44.36481 28.57862 31389 ft 420 kts 196°
2026-04-22 10:49 44.33592 28.57384 30966 ft 415 kts 196°
2026-04-22 10:50 44.30724 28.56910 30563 ft 412 kts 197°
2026-04-22 10:50 44.27889 28.56441 30161 ft 408 kts 197°
2026-04-22 10:50 44.25116 28.55982 29687 ft 405 kts 197°
2026-04-22 10:50 44.22335 28.55524 29270 ft 399 kts 197°
2026-04-22 10:51 44.19594 28.55074 28847 ft 394 kts 197°
2026-04-22 10:51 44.16893 28.54630 28445 ft 389 kts 197°
2026-04-22 10:51 44.14208 28.54189 28033 ft 385 kts 197°
2026-04-22 10:51 44.11563 28.53753 27620 ft 381 kts 197°
2026-04-22 10:52 44.08933 28.53321 27208 ft 378 kts 197°
2026-04-22 10:52 44.06336 28.52894 26804 ft 374 kts 197°
2026-04-22 10:52 44.03759 28.52471 26410 ft 371 kts 197°
2026-04-22 10:52 44.01207 28.52053 26020 ft 368 kts 197°
2026-04-22 10:53 43.99530 28.51778 25763 ft 366 kts 197°
2026-04-22 10:53 43.96195 28.51231 25255 ft 362 kts 197°
2026-04-22 10:53 43.93701 28.50823 24879 ft 360 kts 197°
2026-04-22 10:53 43.91225 28.50419 24504 ft 358 kts 197°
2026-04-22 10:54 43.88755 28.50015 24130 ft 356 kts 197°
2026-04-22 10:54 43.87131 28.49750 23877 ft 354 kts 197°
2026-04-22 10:54 43.84684 28.49351 23483 ft 353 kts 196°
2026-04-22 10:54 43.82253 28.48955 23061 ft 351 kts 196°
2026-04-22 10:55 43.79833 28.48561 22668 ft 348 kts 196°
2026-04-22 10:55 43.77440 28.48174 22286 ft 345 kts 196°
2026-04-22 10:55 43.75062 28.47788 21917 ft 342 kts 195°
2026-04-22 10:55 43.72704 28.47406 21548 ft 340 kts 195°
2026-04-22 10:56 43.70365 28.47026 21180 ft 337 kts 195°
2026-04-22 10:56 43.68043 28.46650 20815 ft 335 kts 195°
2026-04-22 10:56 43.65723 28.46274 20457 ft 333 kts 195°
2026-04-22 10:56 43.63428 28.45902 20102 ft 331 kts 195°
2026-04-22 10:57 43.61149 28.45533 19758 ft 329 kts 195°
2026-04-22 10:57 43.58885 28.45167 19410 ft 327 kts 194°
2026-04-22 10:57 43.56630 28.44804 19069 ft 326 kts 194°
2026-04-22 10:57 43.54416 28.44442 18727 ft 323 kts 195°
2026-04-22 10:58 43.52255 28.43752 18372 ft 314 kts 206°
2026-04-22 10:58 43.50265 28.42576 17944 ft 309 kts 212°
2026-04-22 10:58 43.48332 28.41295 17572 ft 307 kts 212°
2026-04-22 10:58 43.46421 28.40015 17234 ft 304 kts 212°
2026-04-22 10:59 43.44526 28.38746 16885 ft 302 kts 212°
2026-04-22 10:59 43.42631 28.37483 16553 ft 302 kts 212°
2026-04-22 10:59 43.40753 28.36235 16221 ft 303 kts 212°
2026-04-22 10:59 43.38835 28.34963 15879 ft 310 kts 211°
2026-04-22 11:00 43.36873 28.33664 15526 ft 315 kts 211°
2026-04-22 11:00 43.34897 28.32363 15164 ft 314 kts 211°
2026-04-22 11:00 43.32929 28.31072 14816 ft 312 kts 211°
2026-04-22 11:00 43.30971 28.29788 14450 ft 311 kts 210°
2026-04-22 11:01 43.29024 28.28513 14108 ft 309 kts 210°
2026-04-22 11:01 43.27094 28.27249 13748 ft 307 kts 210°
2026-04-22 11:01 43.25173 28.25992 13369 ft 305 kts 210°
2026-04-22 11:01 43.23264 28.24744 13028 ft 302 kts 210°
2026-04-22 11:02 43.21373 28.23508 12674 ft 299 kts 210°
2026-04-22 11:02 43.19500 28.22285 12346 ft 296 kts 210°
2026-04-22 11:02 43.17670 28.21090 12007 ft 295 kts 210°
2026-04-22 11:02 43.15827 28.19888 11665 ft 293 kts 210°
2026-04-22 11:03 43.13989 28.18689 11345 ft 291 kts 210°
2026-04-22 11:03 43.12167 28.17502 11006 ft 289 kts 210°
2026-04-22 11:03 43.10346 28.16315 10607 ft 290 kts 210°
2026-04-22 11:03 43.08517 28.15124 10277 ft 288 kts 210°
2026-04-22 11:04 43.06722 28.13959 10095 ft 282 kts 210°
2026-04-22 11:04 43.05009 28.12848 10075 ft 271 kts 210°
2026-04-22 11:04 43.03307 28.11742 10014 ft 273 kts 210°
2026-04-22 11:04 43.01597 28.10630 9995 ft 271 kts 210°
2026-04-22 11:05 42.99899 28.09528 9992 ft 270 kts 210°
2026-04-22 11:05 42.98199 28.08424 10002 ft 271 kts 210°
2026-04-22 11:05 42.96489 28.07315 9989 ft 272 kts 210°
2026-04-22 11:05 42.94782 28.06209 9994 ft 272 kts 210°
2026-04-22 11:06 42.93076 28.05105 9992 ft 271 kts 210°
2026-04-22 11:06 42.91375 28.04005 9979 ft 269 kts 210°
2026-04-22 11:06 42.89687 28.02916 9985 ft 268 kts 210°
2026-04-22 11:06 42.88027 28.01810 9837 ft 263 kts 216°
2026-04-22 11:07 42.86713 28.00155 9366 ft 256 kts 237°
2026-04-22 11:07 42.85906 27.98010 8790 ft 255 kts 254°
2026-04-22 11:07 42.85657 27.95721 8250 ft 256 kts 271°
2026-04-22 11:07 42.85951 27.93500 7738 ft 257 kts 289°
2026-04-22 11:08 42.86850 27.91390 7275 ft 259 kts 309°
2026-04-22 11:08 42.88244 27.89878 7038 ft 258 kts 328°
2026-04-22 11:08 42.89978 27.89121 6839 ft 267 kts 348°
2026-04-22 11:08 42.91830 27.89134 6879 ft 272 kts
2026-04-22 11:09 42.93638 27.90038 6894 ft 281 kts 21°
2026-04-22 11:09 42.95405 27.91163 6877 ft 279 kts 21°
2026-04-22 11:09 42.97164 27.92300 6890 ft 281 kts 22°
2026-04-22 11:09 42.98938 27.93442 6885 ft 282 kts 22°
2026-04-22 11:10 43.00593 27.94892 6869 ft 287 kts 45°
2026-04-22 11:10 43.01499 27.97307 6889 ft 291 kts 80°
2026-04-22 11:10 43.01480 28.00058 6889 ft 291 kts 104°
2026-04-22 11:10 43.00570 28.02481 6893 ft 287 kts 135°
2026-04-22 11:11 42.98995 28.04017 6900 ft 281 kts 162°
2026-04-22 11:11 42.97088 28.04538 6895 ft 275 kts 184°
2026-04-22 11:11 42.95214 28.04172 6901 ft 272 kts 196°
2026-04-22 11:11 42.93389 28.03617 6891 ft 273 kts 196°
2026-04-22 11:12 42.91513 28.03034 6873 ft 273 kts 196°
2026-04-22 11:12 42.89688 28.02453 6879 ft 272 kts 200°
2026-04-22 11:12 42.88106 28.01159 6666 ft 265 kts 233°
2026-04-22 11:12 42.87187 27.99082 6700 ft 253 kts 245°
2026-04-22 11:13 42.86408 27.96929 6487 ft 253 kts 246°
2026-04-22 11:13 42.85643 27.94782 6220 ft 251 kts 246°
2026-04-22 11:13 42.84874 27.92654 5947 ft 249 kts 245°
2026-04-22 11:13 42.84102 27.90546 5696 ft 247 kts 245°
2026-04-22 11:14 42.83339 27.88478 5517 ft 242 kts 245°
2026-04-22 11:14 42.82586 27.86445 5273 ft 240 kts 245°
2026-04-22 11:14 42.81775 27.84464 5023 ft 240 kts 233°
2026-04-22 11:14 42.80603 27.82842 4804 ft 238 kts 225°
2026-04-22 11:15 42.79435 27.81299 4688 ft 231 kts 226°
2026-04-22 11:15 42.78306 27.79789 4553 ft 224 kts 226°
2026-04-22 11:15 42.77186 27.78297 4490 ft 227 kts 226°
2026-04-22 11:15 42.76039 27.76774 4409 ft 233 kts 226°
2026-04-22 11:16 42.74867 27.75221 4219 ft 239 kts 226°
2026-04-22 11:16 42.73664 27.73628 3984 ft 241 kts 226°
2026-04-22 11:16 42.72464 27.72039 3705 ft 239 kts 226°
2026-04-22 11:16 42.71287 27.70480 3482 ft 232 kts 225°
2026-04-22 11:17 42.70170 27.69001 3396 ft 215 kts 226°
2026-04-22 11:17 42.69142 27.67637 3257 ft 200 kts 226°
2026-04-22 11:17 42.68181 27.66362 3006 ft 192 kts 226°
2026-04-22 11:17 42.67248 27.65123 2750 ft 184 kts 226°
2026-04-22 11:18 42.66342 27.63921 2525 ft 182 kts 226°
2026-04-22 11:18 42.65434 27.62716 2268 ft 180 kts 226°
2026-04-22 11:18 42.64559 27.61555 2014 ft 171 kts 225°
2026-04-22 11:18 42.63725 27.60448 1788 ft 165 kts 225°
2026-04-22 11:19 42.62917 27.59375 1603 ft 159 kts 225°
2026-04-22 11:19 42.62138 27.58341 1373 ft 153 kts 225°
2026-04-22 11:19 42.61385 27.57341 1126 ft 151 kts 224°
2026-04-22 11:19 42.60641 27.56352 917 ft 151 kts 224°
2026-04-22 11:20 42.59895 27.55353 671 ft 150 kts 223°
2026-04-22 11:20 42.59158 27.54367 472 ft 147 kts 221°
2026-04-22 11:20 42.58420 27.53391 286 ft 149 kts 222°
2026-04-22 11:20 42.57696 27.52429 182 ft 136 kts 223°
2026-04-22 11:21 42.57095 27.51639 174 ft 100 kts 225°
2026-04-22 11:21 42.56706 27.51125 171 ft 60 kts 224°
2026-04-22 11:21 42.56464 27.50803 174 ft 36 kts 225°
2026-04-22 11:21 42.56283 27.50703 173 ft 27 kts 192°
2026-04-22 11:22 42.56190 27.50757 173 ft 0 kts 115°
2026-04-22 11:22 42.56185 27.50774 173 ft 9 kts 107°
2026-04-22 11:22 42.56247 27.50927 172 ft 25 kts 47°
2026-04-22 11:23 42.56358 27.51092 175 ft 23 kts 47°
2026-04-22 11:23 42.56448 27.51229 172 ft 0 kts 49°
2026-04-22 11:24 42.56484 27.51284 172 ft 18 kts 48°
2026-04-22 11:24 42.56596 27.51456 172 ft 24 kts 48°
2026-04-22 11:24 42.56628 27.51566 173 ft 0 kts 138°
2026-04-22 11:24 42.56624 27.51568 173 ft 1 kts 153°
2026-04-22 11:25 42.56619 27.51570 173 ft 0 kts 156°